This is the latest recevied weather packets stored in our database for station/object GW4003. If no packets are shown the sender has not sent any weather packets the latest 10 day(s).
| Time | Temp. | Humidity | Pressure | Rain* | Wind** | Luminosity | Snow |
|---|---|---|---|---|---|---|---|
| 1788026973 | 31.67° C | 23% | 1019.6 hPa | 0 mm | - | - | - |
| 1788026669 | 31.67° C | 24% | 1019.6 hPa | 0 mm | - | - | - |
| 1788026377 | 31.67° C | 24% | 1019.6 hPa | 0 mm | - | - | - |
| 1788026060 | 31.67° C | 24% | 1019.6 hPa | 0 mm | - | - | - |
| 1788025757 | 31.67° C | 24% | 1019.7 hPa | 0 mm | - | - | - |
| 1788025453 | 31.11° C | 24% | 1019.7 hPa | 0 mm | - | - | - |
| 1788025149 | 31.67° C | 23% | 1019.8 hPa | 0 mm | - | - | - |
| 1788024846 | 31.67° C | 27% | 1019.8 hPa | 0 mm | - | - | - |
| 1788024542 | 31.67° C | 25% | 1019.8 hPa | 0 mm | - | - | - |
| 1788024241 | 31.11° C | 26% | 1019.9 hPa | 0 mm | - | - | - |
| 1788023938 | 31.11° C | 26% | 1020.1 hPa | 0 mm | - | - | - |
| 1788023634 | 31.11° C | 27% | 1020.1 hPa | 0 mm | - | - | - |
| 1788023330 | 31.11° C | 26% | 1020.1 hPa | 0 mm | - | - | - |
| 1788023028 | 30.56° C | 27% | 1020.2 hPa | 0 mm | - | - | - |
| 1788022723 | 31.11° C | 27% | 1020.3 hPa | 0 mm | - | - | - |
| 1788022422 | 30° C | 28% | 1020.2 hPa | 0 mm | - | - | - |
| 1788022115 | 30° C | 28% | 1020.3 hPa | 0 mm | - | - | - |
| 1788021812 | 30° C | 28% | 1020.2 hPa | 0 mm | - | - | - |
| 1788021507 | 30° C | 29% | 1020.3 hPa | 0 mm | - | - | - |
| 1788021203 | 30° C | 30% | 1020.2 hPa | 0 mm | - | - | - |
| 1788020899 | 29.44° C | 29% | 1020.3 hPa | 0 mm | - | - | - |
| 1788020595 | 29.44° C | 30% | 1020.3 hPa | 0 mm | - | - | - |
| 1788020291 | 28.89° C | 32% | 1020.3 hPa | 0 mm | - | - | - |
| 1788019988 | 29.44° C | 31% | 1020.3 hPa | 0 mm | - | - | - |
| 1788019684 | 28.89° C | 33% | 1020.3 hPa | 0 mm | - | - | - |
* Rain latest hour (hover to see other rain measurements)
** Current wind speed in m/s (hover to see current wind gust speed)